GEFSSE_con_cape1000_336.txt.gz
Probability
48 55 71 68 68 74 74 68 71 77 77 81 81 74 81 81 71 65 61 58 61 68 68 61 61 58 58 58 45 48 52 58 52 55 55 52 52 55 58 58 52 42 65
45 58 71 74 71 77 77 74 71 81 81 84 84 77 81 74 71 68 68 68 71 71 68 61 58 61 58 58 42 42 35 42 42 52 55 55 55 55 58 61 52 48 65
58 61 61 71 81 81 81 84 81 81 81 84 77 77 71 71 74 74 68 65 74 71 71 55 48 58 55 58 52 45 35 35 39 48 52 39 45 52 58 55 48 61 55
58 65 61 81 81 77 71 81 77 81 84 81 84 77 74 71 74 71 68 68 77 77 71 65 58 58 58 55 55 42 39 42 48 39 32 29 23 45 48 45 45 52 58
71 68 68 74 81 74 71 74 81 77 81 81 81 77 74 65 65 68 65 61 61 68 68 61 65 61 61 45 52 42 42 42 45 42 32 32 39 52 39 32 39 48 55
61 55 65 81 74 71 74 74 74 77 74 74 77 71 74 71 68 65 58 61 58 61 58 58 58 61 58 55 45 45 42 42 35 26 26 32 39 58 55 39 29 39 45
61 58 58 81 77 71 74 74 77 77 77 81 74 71 65 74 74 68 61 58 52 55 55 52 55 52 52 48 48 45 39 42 29 13 16 23 45 55 52 55 26 23 29
58 65 68 84 77 74 74 71 74 74 68 71 65 65 65 68 74 71 65 58 55 48 52 52 48 48 42 45 45 45 45 42 23 13 23 26 55 55 55 55 45 35 23
48 61 58 71 77 77 77 74 74 74 71 68 68 68 65 65 68 61 61 52 55 55 48 48 48 39 39 39 42 45 48 52 29 10 6 23 52 52 52 52 48 48 39
42 58 71 68 61 71 74 74 74 77 71 71 61 65 68 61 52 52 61 61 58 58 55 48 42 35 35 35 42 42 48 52 19 16 10 29 58 48 42 39 39 42 32
52 58 55 58 65 61 58 65 71 74 71 74 68 68 71 58 55 58 55 61 58 52 52 55 45 45 42 42 48 52 45 16 19 16 23 52 55 48 48 35 29 32 39
45 55 58 55 58 61 65 71 74 65 74 77 77 71 74 68 61 48 61 61 58 52 52 55 55 52 42 29 39 48 19 23 26 23 29 58 58 55 48 42 35 29 29
42 61 61 55 58 65 71 65 65 68 77 71 71 74 74 71 65 55 58 52 61 58 55 58 52 35 26 45 32 32 23 19 19 29 39 55 52 48 42 39 39 35 32
55 45 55 58 58 65 68 71 71 68 71 71 77 68 74 81 74 68 61 55 55 58 61 55 48 48 42 35 29 26 23 23 23 29 35 52 42 42 39 35 35 32 32
48 52 61 68 84 84 77 77 68 74 65 68 71 77 74 81 71 68 58 71 65 61 58 58 45 48 42 32 26 23 29 26 19 26 29 45 48 48 39 35 29 29 26
55 61 65 65 84 81 84 81 81 74 77 74 74 74 71 81 77 71 77 71 71 65 65 61 48 45 45 39 35 29 29 29 29 26 26 35 48 55 42 35 29 29 32
68 71 68 68 77 77 77 77 71 74 71 74 74 65 68 71 74 77 77 74 71 68 61 61 55 52 45 35 39 32 26 29 29 35 19 23 29 35 45 48 45 23 26
71 74 71 61 77 74 77 81 74 71 74 74 71 68 68 68 65 74 77 74 74 71 71 65 61 58 55 52 48 35 35 35 42 42 35 32 23 19 39 39 39 39 26
71 77 74 84 81 71 74 81 71 77 74 71 71 71 65 65 61 65 74 77 71 74 65 55 65 61 55 42 45 39 32 39 45 42 42 39 29 26 19 23 45 39 32
74 74 77 81 81 81 77 81 74 74 71 74 74 71 68 65 65 68 71 71 68 68 71 71 61 68 65 48 32 35 35 39 39 35 32 29 39 32 16 19 16 19 26
74 77 74 71 74 81 81 74 77 74 74 74 74 71 65 61 65 65 61 65 65 68 74 65 58 55 58 52 39 32 39 32 35 45 39 35 32 29 23 19 23 13 13
71 71 71 71 71 74 74 77 81 74 74 71 71 68 61 55 61 52 68 61 68 68 65 68 65 61 48 52 29 26 23 29 29 19 32 32 19 26 23 16 26 19 19
68 71 71 74 74 71 71 71 71 81 71 71 71 68 65 58 58 61 65 61 65 65 65 65 61 61 58 42 35 32 29 23 26 29 26 19 26 23 23 19 16 16 13
58 68 68 74 74 71 71 68 68 71 68 71 71 68 61 55 55 65 68 65 65 61 65 61 58 58 55 48 45 45 42 35 29 19 23 26 26 23 13 16 10 16 26
45 48 61 68 71 68 68 68 68 65 65 68 68 68 65 52 58 58 58 65 65 65 65 61 61 58 55 52 42 42 35 35 26 26 16 23 19 23 29 29 26 19 23
32 35 45 58 65 65 65 61 65 58 58 61 55 52 52 58 58 58 55 58 58 58 58 58 61 58 55 55 45 42 35 32 29 26 19 19 23 19 26 26 26 23 23

GEFSSE_con_cape1000_342.txt.gz
Probability
52 58 74 77 77 81 81 81 81 81 81 81 84 84 77 77 71 74 74 71 74 74 74 65 65 61 55 42 42 48 48 52 48 52 52 52 48 52 55 55 52 42 58
52 58 81 77 87 84 81 81 77 81 81 81 84 84 77 74 71 71 74 71 74 71 74 71 58 52 45 42 42 48 55 48 52 55 55 48 48 55 55 55 52 48 65
55 58 74 84 84 87 81 81 81 81 81 81 81 77 71 74 74 68 68 74 71 68 65 65 65 58 55 52 52 48 48 52 58 58 42 29 39 61 61 61 61 65 61
52 58 68 81 77 77 81 87 90 84 84 84 81 74 74 74 74 71 71 74 65 65 65 55 58 61 58 58 52 52 55 48 42 48 19 23 35 55 61 61 52 55 58
52 58 74 77 74 77 81 84 84 84 77 74 71 71 68 68 65 68 71 74 74 71 65 61 61 52 55 52 52 58 48 42 39 29 3 6 29 52 52 48 48 58 58
55 58 71 81 77 77 84 84 84 81 74 77 74 74 74 71 71 71 68 61 65 68 65 58 68 58 55 52 48 55 45 39 26 6 10 6 23 48 45 48 42 52 52
45 55 68 81 81 77 81 84 84 77 77 77 71 71 71 71 68 65 65 61 61 61 58 58 65 58 52 52 42 48 52 39 6 3 3 6 29 45 48 45 42 45 52
39 52 68 81 81 74 77 77 74 74 71 71 68 68 71 71 71 61 61 61 61 55 55 48 55 48 52 52 48 42 45 35 13 3 6 6 39 55 48 52 52 55 58
39 52 61 74 77 81 74 77 81 84 81 74 65 65 68 71 71 58 61 58 58 55 52 45 48 48 52 45 48 45 45 42 6 3 6 16 45 55 52 52 52 52 52
45 45 52 55 65 65 71 74 74 81 81 77 71 61 58 58 58 55 65 55 55 58 55 55 52 55 55 42 52 52 48 26 3 3 6 23 45 52 55 55 48 45 45
45 45 48 52 52 52 52 71 71 77 74 74 61 65 61 45 42 48 52 58 58 52 52 55 55 55 52 52 45 45 32 3 0 3 13 32 45 52 55 52 52 45 45
39 39 45 48 52 48 55 52 55 52 48 48 45 45 45 39 35 45 52 55 58 61 58 55 55 52 45 16 13 23 10 3 0 3 23 48 52 52 52 55 52 48 48
32 35 35 45 45 45 39 35 42 39 32 39 32 29 26 26 26 29 26 39 45 52 45 35 32 39 19 10 3 3 3 3 6 10 26 45 48 52 52 45 45 42 45
32 39 45 42 45 32 29 32 29 26 26 26 23 23 16 13 13 19 23 26 19 19 19 16 16 13 10 3 3 3 3 3 3 10 26 39 45 52 45 42 45 42 35
39 35 32 32 32 32 32 29 32 26 23 23 23 19 16 13 16 16 13 16 19 13 10 6 3 3 6 3 3 0 3 0 0 6 23 39 42 42 35 39 35 32 29
42 42 26 32 26 29 26 29 29 19 23 23 19 19 26 19 13 13 13 13 10 10 6 6 3 3 3 3 3 0 0 0 3 3 10 42 48 42 39 35 32 26 29
32 35 35 35 35 23 32 32 35 32 32 26 29 29 29 23 16 10 13 16 10 6 10 6 10 0 0 0 0 0 0 0 3 3 3 13 26 39 45 35 32 32 26
26 32 32 48 35 26 29 32 35 35 35 32 32 32 29 26 23 13 16 16 13 6 6 13 10 3 3 0 0 0 0 0 3 0 0 3 6 16 32 39 45 39 26
35 32 39 32 32 32 29 32 39 35 35 32 29 23 26 26 26 19 16 13 19 10 10 13 6 3 3 0 3 3 3 3 0 6 3 0 3 3 10 26 42 39 32
39 42 35 35 29 35 32 32 29 26 32 32 29 32 19 19 23 19 23 19 16 13 13 10 6 3 3 3 10 10 0 0 0 0 0 0 0 3 6 6 13 23 35
39 35 39 32 26 32 35 32 29 23 29 32 29 35 29 26 23 19 23 19 16 13 13 13 13 6 6 10 6 0 0 0 0 0 0 0 0 0 0 3 3 6 16
39 42 39 29 26 29 32 29 29 29 26 32 32 29 29 26 26 23 23 19 19 16 13 13 13 6 6 6 3 0 0 0 0 0 0 3 0 0 0 0 3 3 3
29 29 35 35 39 32 29 32 29 26 32 32 32 29 29 26 26 29 19 19 19 16 16 13 13 6 6 3 0 0 0 0 0 0 0 0 0 0 0 0 0 0 3
26 29 32 39 39 32 29 32 32 29 29 29 29 23 23 26 26 29 23 23 19 23 23 19 16 16 6 6 3 0 0 0 0 0 0 0 0 0 0 3 3 3 3
35 35 32 35 32 32 35 29 29 26 26 26 29 23 23 23 19 19 19 19 19 23 19 19 13 13 10 6 6 3 3 0 0 0 0 0 0 0 0 3 0 0 0
32 32 29 32 35 32 39 32 32 26 23 29 29 26 19 19 16 16 16 16 19 16 19 19 16 13 10 10 3 0 0 3 0 0 0 0 0 0 0 0 0 0 0

GEFSSE_con_cape1000_348.txt.gz
Probability
19 45 65 68 68 68 77 74 74 74 74 77 77 74 74 71 74 77 74 68 68 65 65 68 74 55 55 48 52 58 55 61 58 55 58 45 48 61 58 58 52 32 55
23 48 71 74 71 77 77 71 74 74 77 81 84 81 77 77 74 74 65 71 71 71 65 58 55 48 52 48 48 48 55 55 55 48 55 52 61 58 55 45 45 32 42
39 48 65 81 74 77 81 84 74 77 81 84 84 81 84 74 81 77 71 74 68 68 61 58 52 45 45 48 48 52 55 45 55 52 58 45 52 61 48 52 52 52 42
39 48 58 74 81 84 81 87 87 81 81 77 81 81 77 74 71 71 71 74 61 65 48 48 52 45 48 52 52 52 55 55 55 52 26 35 42 45 55 52 48 55 42
39 42 55 74 81 84 77 84 81 77 68 71 74 68 65 71 74 71 71 71 65 61 58 55 55 48 52 55 52 55 55 58 61 26 16 26 35 55 58 52 48 45 48
39 45 58 74 84 77 87 84 77 77 71 71 71 68 65 65 71 71 65 61 65 58 58 55 55 58 55 55 55 45 45 45 29 29 26 29 35 45 55 52 42 39 42
39 48 58 74 74 81 77 81 77 81 74 74 71 71 68 68 71 65 65 65 61 61 55 52 45 52 55 52 45 52 48 45 10 13 19 26 32 45 48 42 42 48 42
35 48 58 77 77 77 71 77 81 77 74 68 68 65 65 65 68 61 65 68 65 58 61 45 45 48 48 45 48 48 48 23 13 10 19 32 39 52 48 48 55 48 45
42 52 48 55 68 74 74 74 74 71 65 65 68 68 65 61 65 58 58 61 58 61 58 55 48 45 48 45 39 48 45 26 3 10 13 29 39 45 45 52 55 52 48
42 45 52 52 52 55 61 68 77 71 65 65 61 61 58 55 61 55 52 61 55 58 61 55 48 48 48 45 45 48 39 19 6 6 16 29 45 42 45 52 55 48 48
42 42 45 48 48 48 52 65 61 65 68 52 52 55 58 45 42 45 52 58 52 58 55 58 52 45 39 39 45 45 26 10 3 10 16 29 39 42 45 52 52 48 48
35 39 42 45 48 48 55 48 45 52 45 45 45 48 39 29 29 39 45 58 52 52 48 45 52 45 29 23 26 19 16 13 10 10 16 29 45 45 42 52 48 42 45
35 35 39 39 39 42 42 45 42 35 35 35 35 29 26 26 19 26 26 32 29 35 32 29 32 23 19 10 16 10 10 10 10 13 23 29 39 35 29 42 45 42 35
26 32 32 35 35 39 32 39 32 29 29 29 29 26 26 26 19 19 19 26 23 23 26 23 16 16 13 6 0 3 3 6 10 13 23 35 35 39 35 35 45 42 42
26 29 23 29 29 29 26 29 23 26 26 23 23 19 23 19 19 19 19 13 16 16 16 23 19 13 13 6 0 0 0 3 3 10 16 29 35 42 39 35 42 45 42
29 26 26 32 29 29 29 23 16 16 19 16 16 19 16 13 10 16 10 10 13 16 16 16 10 13 10 3 3 0 0 0 3 10 13 23 32 39 39 35 35 39 39
23 23 32 32 29 29 29 23 16 13 13 13 13 16 16 13 10 6 10 10 10 10 10 6 6 6 6 6 6 6 0 0 6 6 10 16 26 35 35 35 42 42 26
19 26 29 35 26 23 23 23 16 16 13 13 13 13 16 16 10 6 10 10 10 6 6 6 6 6 6 3 6 3 3 0 3 3 10 13 19 19 32 32 32 29 26
19 19 23 23 23 23 19 23 23 16 16 13 13 13 13 16 16 6 10 6 6 6 6 6 6 6 3 3 6 6 0 0 0 3 3 10 10 6 16 26 35 29 19
19 19 19 23 19 23 19 23 23 16 13 13 16 13 13 23 16 6 6 6 6 10 10 6 6 6 6 6 6 6 6 3 0 0 0 0 3 6 6 10 19 29 26
26 19 19 23 23 23 19 23 23 23 19 13 13 13 16 16 13 13 16 10 10 10 10 10 10 10 10 10 6 6 3 0 0 0 0 0 0 3 3 6 10 10 10
23 26 26 19 16 26 23 19 16 13 16 13 16 16 13 16 13 19 13 13 13 13 6 10 10 13 10 10 6 6 3 0 0 0 0 0 0 0 3 3 3 3 6
16 19 23 19 13 13 13 13 6 10 13 13 13 13 13 13 19 23 16 13 13 13 13 10 6 10 10 6 6 6 6 0 0 0 0 0 0 0 0 0 3 3 3
19 13 10 10 13 13 13 10 10 19 19 19 16 16 13 16 19 23 19 16 16 16 16 16 13 13 10 10 3 3 3 3 0 0 0 0 0 0 0 0 3 3 3
13 13 10 10 10 13 16 16 16 13 13 10 13 16 19 19 19 23 23 19 16 16 16 16 13 13 10 10 6 3 3 3 0 0 3 3 0 0 0 3 3 3 3
10 10 10 10 13 10 13 13 16 16 16 16 13 13 19 19 19 19 23 16 16 16 13 13 13 13 13 13 13 3 3 3 0 0 0 0 0 0 0 0 0 0 0

GEFSSE_con_cape1000_354.txt.gz
Probability
10 23 55 58 58 71 71 74 71 71 74 77 71 68 68 71 74 74 71 71 68 68 74 74 74 61 58 61 58 58 58 55 58 65 55 58 55 52 52 55 42 26 52
16 26 55 61 65 71 77 71 71 71 74 74 71 65 68 68 71 77 71 65 71 71 71 65 65 55 52 52 48 52 55 58 58 71 55 55 52 61 55 39 42 26 48
26 32 55 65 74 77 77 77 71 74 81 71 68 65 68 74 68 71 71 68 68 71 68 55 61 55 48 52 48 45 45 65 61 52 58 39 39 55 52 42 45 45 39
26 42 48 68 71 81 74 77 77 71 68 74 71 74 74 71 71 68 68 65 58 55 52 52 55 52 52 52 45 48 42 48 52 58 32 26 26 42 55 42 42 35 35
32 45 61 68 81 77 77 81 71 68 65 68 61 65 65 71 74 74 65 65 58 52 48 52 45 48 48 48 48 52 48 48 48 42 16 23 42 55 52 52 45 39 35
35 35 61 77 81 81 81 74 68 68 65 61 58 58 61 68 71 71 65 61 61 55 52 48 45 39 45 42 42 45 48 45 39 23 23 19 35 55 55 52 39 39 35
35 32 55 81 74 74 74 74 71 68 65 65 61 58 61 71 65 65 65 61 58 52 48 42 45 42 42 42 42 42 42 45 19 19 23 23 39 58 58 52 45 45 42
35 42 58 74 68 68 68 71 68 68 68 65 61 61 58 58 61 58 58 58 58 55 48 48 45 45 45 45 45 45 35 32 10 13 19 23 48 52 55 52 48 48 45
32 35 48 55 65 68 65 65 61 58 58 58 61 58 61 58 52 52 55 55 58 52 52 52 48 52 48 48 42 39 29 29 23 19 3 13 45 48 42 48 48 45 42
32 39 45 48 55 52 58 68 58 58 58 58 58 55 55 55 58 48 45 52 52 48 48 48 48 48 42 39 32 29 29 19 10 13 13 16 45 45 35 45 52 48 45
35 42 45 48 52 55 48 52 58 58 58 58 58 52 52 39 32 42 42 48 42 45 58 42 42 42 39 39 35 32 23 13 10 23 32 29 35 42 45 48 45 42 45
42 42 39 45 52 48 48 65 68 61 61 61 55 45 42 45 42 32 45 48 45 42 52 42 39 42 29 23 32 32 29 16 13 13 32 42 39 42 42 42 45 48 48
45 48 45 48 58 52 61 61 65 58 65 61 55 45 45 42 35 42 35 39 39 42 35 32 32 29 23 26 32 23 16 13 19 13 26 29 35 39 48 52 42 45 48
42 45 45 52 52 52 55 58 61 55 58 55 52 45 42 39 35 39 45 39 39 35 35 39 35 26 29 26 29 16 13 23 23 23 29 29 26 35 32 39 39 39 39
45 52 58 58 65 68 68 65 55 55 48 55 61 48 45 45 39 42 52 52 39 35 45 48 35 32 32 23 19 16 13 16 10 16 29 29 32 32 32 26 32 26 32
52 61 58 58 61 71 71 71 65 55 58 45 42 42 48 35 42 35 45 48 45 45 39 42 29 39 29 29 23 23 26 23 23 23 19 29 39 39 35 32 35 39 35
61 65 65 61 61 68 71 68 55 52 52 45 48 52 48 42 55 48 39 48 45 42 45 39 32 35 29 29 26 26 23 29 29 32 19 16 23 35 32 29 26 35 29
61 68 68 55 65 61 65 65 55 55 55 52 48 45 48 52 45 52 35 32 48 45 32 32 35 32 35 32 29 32 29 48 32 48 32 39 29 32 29 29 26 19 16
58 61 61 55 58 65 65 65 61 61 61 61 55 55 48 48 48 48 52 55 55 48 35 35 32 35 39 35 32 35 35 39 35 26 39 39 42 39 32 39 32 29 19
61 61 55 58 58 55 58 58 61 61 61 61 61 65 55 55 48 39 42 48 39 45 42 42 45 52 48 48 19 23 32 29 29 26 29 29 35 35 32 26 32 29 29
55 58 61 58 58 58 52 52 65 61 58 55 55 52 48 48 52 52 35 48 48 45 42 29 39 35 35 45 35 29 32 29 32 29 29 32 29 35 35 29 29 26 23
58 58 65 58 55 58 55 52 55 61 52 52 52 55 48 48 42 35 48 35 42 48 48 42 45 35 29 32 32 29 29 32 35 19 29 29 29 29 29 23 29 29 26
61 61 55 52 55 58 58 48 52 52 52 48 52 55 52 42 42 42 42 45 42 39 42 48 48 39 29 29 29 26 29 26 23 19 29 26 26 32 19 19 19 23 19
52 52 55 55 61 58 52 45 52 52 39 48 48 48 55 48 42 45 45 48 48 39 48 45 32 35 42 39 39 39 29 26 26 29 23 29 29 26 16 16 13 13 16
39 39 45 42 42 48 45 52 48 48 48 39 45 52 52 48 48 45 45 48 48 45 45 39 45 42 42 42 39 42 26 26 23 29 23 26 19 16 16 16 16 13 16
39 32 35 39 42 42 39 42 48 48 48 42 42 42 45 48 52 48 45 45 48 52 52 45 45 48 48 48 42 35 32 23 23 23 23 23 26 16 29 26 19 16 13